Fitchburg, MA

12:18 AM EST on December 14, 2019 (GMT -0500)
Fitchburg Municipal

Weather History for KFIT - June, 2019

Change the Weather History Date:

Monday, June 10, 2019

  Actual Average (KORH) Record (KORH)
Temperature  
Mean Temperature 68 °F -  
Max Temperature 81 °F 74 °F 94 °F (2008)
Min Temperature 54 °F 53 °F 40 °F (1975)
Cooling Degree Days 2    
Growing Degree Days 18 (Base 50)    
Moisture  
Dew Point 53 °F    
Average Humidity 60    
Maximum Humidity 93    
Minimum Humidity 27    
Precipitation  
Precipitation 0.01 in - - ()
Sea Level Pressure  
Sea Level Pressure 30.11 in    
Wind  
Wind Speed 4 mph (SE)    
Max Wind Speed 14 mph    
Max Gust Speed 18 mph    
Visibility 9 miles    
Events Rain    
Averages and records for this station are not official NWS values.
T = Trace of Precipitation, MM = Missing Value Source: NWS Daily Summary

Daily Weather History Graph

Daily Weather History Graph

Search for Another Location

Airport or City:

Astronomy

Jun. 10, 2019 Rise Set
Actual Time 5:09 AM EDT 8:23 PM EDT
Civil Twilight 4:34 AM EDT 8:58 PM EDT
Nautical Twilight 3:49 AM EDT 9:43 PM EDT
Astronomical Twilight 2:55 AM EDT 10:37 PM EDT
Moon 1:00 PM EDT (6/10) 1:30 AM EDT (6/10)
Length of Visible Light 16h 23m
Length of Day
15h 14m
First Quarter, 55% of the Moon is Illuminated
Jun 10
First Quarter
Jun 17
Full
Jun 25
Last Quarter
Jul 2
New
Jul 9
First Quarter

Hourly Weather History & Observations

Time (EDT) Temp. Dew Point Humidity Pressure Visibility Wind Dir Wind Speed Gust Speed Precip Events Conditions
12:52 AM 57.9 °F 46.9 °F 67% 30.26 in 10.0 mi Calm Calm - N/A   Clear
1:52 AM 57.9 °F 46.0 °F 65% 30.25 in 10.0 mi Calm Calm - N/A   Clear
2:52 AM 57.0 °F 46.0 °F 67% 30.25 in 10.0 mi Calm Calm - N/A   Clear
3:52 AM 55.9 °F 45.0 °F 67% 30.24 in 10.0 mi Calm Calm - N/A   Clear
4:52 AM 54.0 °F 46.0 °F 75% 30.24 in 10.0 mi Calm Calm - N/A   Clear
5:52 AM 55.0 °F 46.0 °F 72% 30.24 in 10.0 mi SSE 4.6 mph - N/A   Clear
6:52 AM 57.9 °F 46.0 °F 65% 30.24 in 10.0 mi Calm Calm - N/A   Clear
7:52 AM 62.1 °F 46.0 °F 56% 30.23 in 10.0 mi Calm Calm - N/A   Clear
8:52 AM 68.0 °F 44.1 °F 42% 30.22 in 10.0 mi ESE 5.8 mph - N/A   Clear
9:52 AM 70.0 °F 45.0 °F 41% 30.20 in 10.0 mi ESE 5.8 mph - N/A   Clear
10:52 AM 73.9 °F 46.9 °F 38% 30.19 in 10.0 mi SE 8.1 mph - N/A   Clear
11:52 AM 75.0 °F 45.0 °F 34% 30.17 in 10.0 mi SSE 5.8 mph - N/A   Clear
12:52 PM 78.1 °F 48.0 °F 35% 30.15 in 10.0 mi Variable 5.8 mph - N/A   Clear
1:52 PM 79.0 °F 48.0 °F 34% 30.12 in 10.0 mi SSE 10.4 mph 18.4 mph N/A   Clear
2:52 PM 81.0 °F 48.0 °F 31% 30.10 in 10.0 mi South 11.5 mph - N/A   Clear
3:52 PM 80.1 °F 43.0 °F 27% 30.08 in 10.0 mi SSE 10.4 mph - N/A   Clear
4:52 PM 79.0 °F 48.0 °F 34% 30.06 in 10.0 mi SE 13.8 mph - N/A   Clear
5:52 PM 78.1 °F 57.0 °F 48% 30.04 in 10.0 mi SSE 9.2 mph - N/A   Clear
6:52 PM 75.0 °F 61.0 °F 62% 30.03 in 10.0 mi SSE 11.5 mph - N/A   Scattered Clouds
7:52 PM 73.9 °F 62.1 °F 66% 30.01 in 10.0 mi SSE 11.5 mph - N/A   Overcast
8:25 PM 73.0 °F 62.1 °F 68% 30.01 in 10.0 mi SE 12.7 mph - N/A   Overcast
8:52 PM 73.0 °F 63.0 °F 71% 30.00 in 10.0 mi SSE 9.2 mph - N/A   Overcast
9:52 PM 71.1 °F 63.0 °F 75% 29.99 in 10.0 mi SSE 11.5 mph - 0.00 in Rain Light Rain
10:52 PM 69.1 °F 64.9 °F 87% 29.97 in 4.0 mi SE 8.1 mph - 0.00 in Rain Light Rain
11:04 PM 68.0 °F 64.9 °F 90% 29.96 in 2.5 mi ESE 4.6 mph - 0.01 in Rain Light Rain
11:13 PM 68.0 °F 64.9 °F 90% 29.96 in 5.0 mi ESE 6.9 mph - 0.01 in   Overcast
11:28 PM 68.0 °F 66.0 °F 93% 29.96 in 9.0 mi SE 9.2 mph - 0.01 in Rain Light Rain
11:52 PM 68.0 °F 66.0 °F 93% 29.94 in 9.0 mi SE 10.4 mph - 0.01 in Rain Light Rain